Hourly Weather Ruden'ka

Today, 15 April, Thursday

Time Temperature Precipitation Wind Pressure Humidity
00:00 +9°C° 0 mm 1 mps 739 mmHg 79%
01:00 +9°C° 0 mm 1 mps 739 mmHg 81%
02:00 +7°C° 0 mm 2 mps 739 mmHg 86%
03:00 +6°C° 0 mm 2 mps 739 mmHg 88%
04:00 +6°C° 0 mm 2 mps 739 mmHg 91%
05:00 +5°C° 0 mm 2 mps 739 mmHg 94%
06:00 +6°C° 0 mm 2 mps 739 mmHg 91%
07:00 +7°C° 0 mm 2 mps 739 mmHg 88%
08:00 +9°C° 0 mm 2 mps 739 mmHg 85%
09:00 +9°C° 0.3 mm 3 mps 739 mmHg 81%
10:00 +10°C° 0.3 mm 3 mps 739 mmHg 78%
11:00 +11°C° 0.3 mm 4 mps 739 mmHg 74%
12:00 +10°C° 0.7 mm 4 mps 739 mmHg 79%
13:00 +8°C° 0.7 mm 4 mps 739 mmHg 83%
14:00 +8°C° 0.7 mm 4 mps 739 mmHg 88%
15:00 +7°C° 1.1 mm 4 mps 739 mmHg 90%
16:00 +6°C° 1.1 mm 5 mps 739 mmHg 91%
17:00 +6°C° 1.1 mm 5 mps 739 mmHg 93%
18:00 +5°C° 1.7 mm 5 mps 739 mmHg 93%
19:00 +5°C° 1.7 mm 5 mps 739 mmHg 94%
20:00 +3°C° 1.7 mm 6 mps 738 mmHg 94%
21:00 +3°C° 1.7 mm 6 mps 738 mmHg 94%
22:00 +3°C° 1.7 mm 6 mps 738 mmHg 94%
23:00 +3°C° 1.7 mm 6 mps 738 mmHg 94%

Tomorrow, 16 April, Friday

Time Temperature Precipitation Wind Pressure Humidity
00:00 +2°C° 1.3 mm 6 mps 738 mmHg 95%
01:00 +2°C° 1.3 mm 6 mps 738 mmHg 95%
02:00 +2°C° 1.3 mm 6 mps 737 mmHg 95%
03:00 +2°C° 1.3 mm 6 mps 737 mmHg 95%
04:00 +1°C° 1.3 mm 6 mps 737 mmHg 95%
05:00 +1°C° 1.3 mm 5 mps 737 mmHg 96%
06:00 +1°C° 0.9 mm 5 mps 737 mmHg 96%
07:00 0°C° 0.9 mm 5 mps 738 mmHg 97%
08:00 0°C° 0.9 mm 5 mps 738 mmHg 97%
09:00 0°C° 0.6 mm 5 mps 738 mmHg 98%
10:00 0°C° 0.6 mm 5 mps 738 mmHg 98%
11:00 0°C° 0.6 mm 4 mps 739 mmHg 98%
12:00 0°C° 0.2 mm 4 mps 739 mmHg 98%
13:00 +1°C° 0.2 mm 4 mps 739 mmHg 98%
14:00 +1°C° 0.2 mm 4 mps 739 mmHg 98%
15:00 +1°C° 0 mm 4 mps 740 mmHg 97%
16:00 +1°C° 0 mm 4 mps 740 mmHg 97%
17:00 +1°C° 0 mm 4 mps 740 mmHg 97%
18:00 +1°C° 0 mm 4 mps 740 mmHg 96%
19:00 0°C° 0 mm 4 mps 741 mmHg 95%
20:00 0°C° 0 mm 4 mps 741 mmHg 94%
21:00 0°C° 0 mm 4 mps 741 mmHg 95%
22:00 +1°C° 0 mm 3 mps 741 mmHg 95%
23:00 +1°C° 0 mm 3 mps 741 mmHg 96%

Day after tomorrow, 17 April, Saturday

Time Temperature Precipitation Wind Pressure Humidity
00:00 +1°C° 0 mm 3 mps 742 mmHg 97%
01:00 +1°C° 0 mm 3 mps 742 mmHg 97%
02:00 +2°C° 0 mm 2 mps 742 mmHg 98%
03:00 +2°C° 0.1 mm 2 mps 742 mmHg 98%
04:00 +2°C° 0.1 mm 2 mps 742 mmHg 99%
05:00 +2°C° 0.1 mm 2 mps 742 mmHg 99%
06:00 +2°C° 0 mm 2 mps 743 mmHg 99%
07:00 +2°C° 0 mm 2 mps 743 mmHg 99%
08:00 +3°C° 0 mm 1 mps 743 mmHg 99%
09:00 +4°C° 0 mm 1 mps 744 mmHg 98%
10:00 +4°C° 0 mm 1 mps 744 mmHg 97%
11:00 +4°C° 0 mm 1 mps 744 mmHg 96%
12:00 +5°C° 0 mm 1 mps 744 mmHg 95%
13:00 +5°C° 0 mm 1 mps 744 mmHg 94%
14:00 +5°C° 0 mm 1 mps 745 mmHg 92%
15:00 +6°C° 0 mm 1 mps 745 mmHg 91%
16:00 +6°C° 0 mm 1 mps 745 mmHg 89%
17:00 +6°C° 0 mm 1 mps 745 mmHg 88%
18:00 +6°C° 0 mm 1 mps 745 mmHg 90%
19:00 +5°C° 0 mm 1 mps 745 mmHg 92%
20:00 +5°C° 0 mm 1 mps 745 mmHg 94%
21:00 +5°C° 0 mm 1 mps 745 mmHg 94%
22:00 +5°C° 0 mm 1 mps 745 mmHg 94%
23:00 +5°C° 0 mm 1 mps 745 mmHg 94%

18 April, Sunday

Time Temperature Precipitation Wind Pressure Humidity
00:00 +5°C° 0 mm 1 mps 745 mmHg 94%
01:00 +5°C° 0 mm 1 mps 744 mmHg 93%
02:00 +5°C° 0 mm 1 mps 744 mmHg 93%
03:00 +5°C° 0 mm 1 mps 744 mmHg 91%
04:00 +5°C° 0 mm 1 mps 744 mmHg 90%
05:00 +5°C° 0 mm 1 mps 744 mmHg 88%
06:00 +6°C° 0 mm 1 mps 744 mmHg 83%
07:00 +7°C° 0 mm 1 mps 744 mmHg 78%
08:00 +8°C° 0 mm 1 mps 744 mmHg 73%
09:00 +9°C° 0 mm 1 mps 744 mmHg 69%
10:00 +9°C° 0 mm 0 mps 744 mmHg 64%
11:00 +10°C° 0 mm 0 mps 744 mmHg 60%
12:00 +11°C° 0 mm 0 mps 744 mmHg 57%
13:00 +12°C° 0 mm 0 mps 744 mmHg 55%
14:00 +13°C° 0 mm 0 mps 744 mmHg 52%
15:00 +14°C° 0 mm 1 mps 744 mmHg 52%
16:00 +13°C° 0 mm 1 mps 744 mmHg 53%
17:00 +13°C° 0 mm 1 mps 743 mmHg 53%
18:00 +12°C° 0 mm 2 mps 744 mmHg 60%
19:00 +10°C° 0 mm 2 mps 744 mmHg 68%
20:00 +8°C° 0 mm 2 mps 744 mmHg 75%
21:00 +8°C° 0 mm 2 mps 744 mmHg 77%
22:00 +8°C° 0 mm 2 mps 744 mmHg 79%
23:00 +8°C° 0 mm 2 mps 744 mmHg 80%

19 April, Monday

Time Temperature Precipitation Wind Pressure Humidity
00:00 +8°C° 0 mm 2 mps 744 mmHg 81%
01:00 +8°C° 0 mm 2 mps 744 mmHg 82%
02:00 +8°C° 0 mm 2 mps 744 mmHg 84%
03:00 +8°C° 0 mm 2 mps 744 mmHg 85%
04:00 +8°C° 0 mm 2 mps 743 mmHg 86%
05:00 +7°C° 0 mm 2 mps 743 mmHg 87%
06:00 +8°C° 0 mm 3 mps 743 mmHg 86%
07:00 +8°C° 0 mm 3 mps 743 mmHg 85%
08:00 +7°C° 0 mm 4 mps 743 mmHg 85%
09:00 +8°C° 0.1 mm 4 mps 743 mmHg 80%
10:00 +10°C° 0.1 mm 4 mps 743 mmHg 75%
11:00 +10°C° 0.1 mm 5 mps 743 mmHg 71%
12:00 +10°C° 0.2 mm 5 mps 743 mmHg 69%
13:00 +10°C° 0.2 mm 5 mps 743 mmHg 68%
14:00 +12°C° 0.2 mm 5 mps 743 mmHg 67%
15:00 +11°C° 0.1 mm 6 mps 742 mmHg 67%
16:00 +10°C° 0.1 mm 6 mps 742 mmHg 68%
17:00 +10°C° 0.1 mm 7 mps 741 mmHg 68%
18:00 +9°C° 0 mm 6 mps 741 mmHg 71%
19:00 +8°C° 0 mm 6 mps 741 mmHg 74%
20:00 +7°C° 0 mm 6 mps 741 mmHg 77%
21:00 +7°C° 0 mm 6 mps 740 mmHg 78%
22:00 +7°C° 0 mm 6 mps 740 mmHg 78%
23:00 +6°C° 0 mm 7 mps 740 mmHg 79%

20 April, Tuesday

Time Temperature Precipitation Wind Pressure Humidity
00:00 +5°C° 0 mm 7 mps 739 mmHg 82%
01:00 +5°C° 0 mm 7 mps 739 mmHg 85%
02:00 +4°C° 0 mm 7 mps 738 mmHg 88%
03:00 +4°C° 0 mm 8 mps 738 mmHg 88%
04:00 +4°C° 0 mm 8 mps 738 mmHg 87%
05:00 +4°C° 0 mm 8 mps 737 mmHg 87%
06:00 +4°C° 0 mm 8 mps 737 mmHg 86%
07:00 +4°C° 0 mm 8 mps 737 mmHg 86%
08:00 +4°C° 0 mm 8 mps 737 mmHg 86%
09:00 +4°C° 0 mm 8 mps 737 mmHg 84%
10:00 +4°C° 0 mm 8 mps 737 mmHg 81%
11:00 +4°C° 0 mm 8 mps 737 mmHg 79%
12:00 +5°C° 0 mm 8 mps 737 mmHg 78%
13:00 +5°C° 0 mm 8 mps 737 mmHg 76%
14:00 +5°C° 0 mm 8 mps 737 mmHg 74%
15:00 +5°C° 0 mm 7 mps 737 mmHg 73%
16:00 +5°C° 0 mm 7 mps 736 mmHg 73%
17:00 +5°C° 0 mm 6 mps 736 mmHg 72%
18:00 +5°C° 0 mm 6 mps 736 mmHg 73%
19:00 +5°C° 0 mm 6 mps 736 mmHg 73%
20:00 +4°C° 0 mm 6 mps 736 mmHg 74%
21:00 +4°C° 0 mm 6 mps 736 mmHg 75%
22:00 +4°C° 0 mm 6 mps 736 mmHg 76%
23:00 +3°C° 0 mm 5 mps 736 mmHg 77%
Show more